Regional Weather Roundup
Issued by NWS

Home | Current Version | Previous Version | Text Only | Print | Product List | Glossary On
Versions: 1 2 3 4 5 6 7 8 9 10 11 12 13 14 15 16 17 18 19 20 21 22 23 24 25 26 27 28 29 30 31 32 33 34 35 36 37 38 39 40 41 42 43 44 45 46 47 48 49 50
000
ASUS44 KFWD 292103
RWRTX
NORTH TEXAS HOURLY WEATHER ROUNDUP
NATIONAL WEATHER SERVICE FORT WORTH TX
300 PM CST THU JAN 29 2015

NOTE: "FAIR" INDICATES FEW OR NO CLOUDS BELOW 12,000 FEET WITH NO
SIGNIFICANT WEATHER AND/OR OBSTRUCTIONS TO VISIBILITY.

TXZ118-119-292200-
DALLAS/FORT WORTH METROPLEX

CITY           SKY/WX    TMP DP  RH WIND       PRES   REMARKS
DFW AIRPORT    PTSUNNY   65  36  34 N21       30.27S
DALLAS LOVE    PTSUNNY   66  37  34 N18       30.27R
FTW MEACHAM    PTSUNNY   65  37  35 N21G30    30.28R
DAL-EXECUTIVE  MOSUNNY   71  36  27 N17       30.25S
FTW-ALLIANCE   PTSUNNY   63  36  36 N23G29    30.28S
FTW-SPINKS     SUNNY     66  37  34 N16G28    30.29R
ARLINGTON      MOSUNNY   68  34  28 N17G25    30.27R
GRAND PRAIRIE  SUNNY     66  39  37 N14G28    30.28S
ADDISON        SUNNY     64  34  32 N18G24    30.28
LANCASTER      MOSUNNY   68  37  31 N15       30.27R
$$

TXZ091>094-102>105-117-120-121-131>134-292200-
NORTH CENTRAL TEXAS

CITY           SKY/WX    TMP DP  RH WIND       PRES   REMARKS
SHRMAN/DENISON PTSUNNY   63  38  40 N20G25    30.33R
GAINESVILLE    MOSUNNY   60  33  35 N16G26    30.35R
BRIDGEPORT     PTSUNNY   60  38  43 N15G23    30.34S
DECATUR        CLOUDY    62  30  30 N22G31    30.31S
DENTON         CLOUDY    62  36  37 N18G26    30.30S
MCKINNEY       PTSUNNY   64  37  36 N20       30.28S
GREENVILLE     SUNNY     64  34  32 N16       30.27S
ROCKWALL       PTSUNNY   64  38  37 N16G23    30.26S
TERRELL        MOSUNNY   70  38  31 N15G23    30.26R
WAXAHACHIE     MOSUNNY   68  41  36 N15G22    30.26F
CLEBURNE       SUNNY     68  37  32 N15G22    30.29R
GRANBURY       MOSUNNY   69  38  32 N13       30.30S
$$

TXZ083>090-098>101-113>116-127>130-139>142-154-155-292200-
WESTERN NORTH TEXAS

CITY           SKY/WX    TMP DP  RH WIND       PRES   REMARKS
WICHITA FALLS  CLOUDY    56  32  40 N21       30.39R
WF-KICKAPOO    CLOUDY    49  23  36 N20G31    30.40R
VERNON         CLOUDY    56  22  26 N18G25    30.42F
ABILENE        PTSUNNY   62  34  35 NE16G23   30.34S
ABILENE-DYESS  MOSUNNY   60  38  43 NE17      30.33S
BRECKENRIDGE   MOSUNNY   62  33  33 NE16G22   30.35R
MINERAL WELLS  PTSUNNY   62  34  35 N18G26    30.31R
STEPHENVILLE   MOSUNNY   66  35  32 N16G22    30.32R
COMANCHE       PTSUNNY   66  39  36 N16G23    30.29S
BROWNWOOD      PTSUNNY   66  36  32 NE14      30.29S
COLEMAN        CLOUDY    64  40  41 N21G26    30.30S
BRADY          SUNNY     68  36  30 N13       30.27R
$$

TXZ143>147-156>162-174-175-292200-
CENTRAL TEXAS

CITY           SKY/WX    TMP DP  RH WIND       PRES   REMARKS
WACO           MOSUNNY   71  41  33 N14       30.24R
WACO-TSTC      SUNNY     72  37  28 N9G17     30.24S
WACO-MCGREGOR  PTSUNNY   70  43  37 NE13      30.25S
HILLSBORO      SUNNY     69  37  31 N17G23    30.25R
CORSICANA      SUNNY     73  39  29 N13       30.24S
MEXIA          MOSUNNY   70  44  38 N14G20    30.22S
HEARNE         SUNNY     73  53  49 W6        30.21S
CAMERON        MOSUNNY   73  53  51 N6        30.21R
TEMPLE         PTSUNNY   70  41  35 N13G21    30.23R
KILLEEN        CLOUDY    69  39  33 NE15      30.23S
KILLEEN-SKYLRK PTSUNNY   70  41  35 N12G21    30.22S
FORT HOOD      PTSUNNY   70  39  33 N15G21    30.23S
GATESVILLE     PTSUNNY   72  37  28 N13       30.27R
HAMILTON       PTSUNNY   69  36  29 NE16G23   30.27S
LAMPASAS       PTSUNNY   71  41  34 N9        30.24S
$$

TXZ095>097-106>112-122>126-135>138-148>153-164>167-292200-
EAST TEXAS

CITY           SKY/WX    TMP DP  RH WIND       PRES   REMARKS
PARIS          SUNNY     64  37  36 NW22      30.27S
SULPHUR SPRNGS SUNNY     64  39  40 N16G22    30.29R
MOUNT PLEASANT SUNNY     69  37  30 NW16G25   30.25R
GILMER         SUNNY     70  38  31 NW9G21    30.21R
MINEOLA        MOSUNNY   70  32  24 N12G22    30.25R
TYLER          MOSUNNY   74  39  28 NW12G22   30.21S
LONGVIEW       SUNNY     74  40  29 NW13      30.19R
MARSHALL       SUNNY     76  42  28 NW9       30.20S
ATHENS         SUNNY     72  37  28 N10       30.21S
PALESTINE      SUNNY     74  45  34 N9G20     30.22S
JACKSONVILLE   MOSUNNY   72  48  42 MISG      30.22R
HENDERSON      SUNNY     75  42  30 NW7       30.20S
NACOGDOCHES    PTSUNNY   72  54  53 NW8       30.20S
LUFKIN         CLOUDY    74  50  42 W12       30.20R
$$

SUPPLEMENTAL OBSERVATIONS (CENTRAL)

CITY           SKY/WX    TMP DP  RH WIND       PRES   REMARKS
$$

SUPPLEMENTAL OBSERVATIONS (WEST)

CITY           SKY/WX    TMP DP  RH WIND       PRES   REMARKS
$$

SUPPLEMENTAL OBSERVATIONS (EAST)

CITY           SKY/WX    TMP DP  RH WIND       PRES   REMARKS
$$

SUPPLEMENTAL OBSERVATIONS ARE A COLLECTION OF AUTOMATED INSTRUMENTS
THAT ARE MAINTAINED BY A VARIETY OF FEDERAL AND STATE AGENCIES.
CERTAIN ELEMENTS...SUCH AS HUMIDITY VALUES AND SUSTAINED WIND
SPEEDS...MAY BE APPROXIMATED.



USA.gov is the U.S. government's official web portal to all federal, state and local government web resources and services.